Greensboro, NC

10:44 AM EDT on October 23, 2017 (GMT -0400)
Piedmont Triad International

Weather History for KGSO - October, 2013

Change the Weather History Date:

Monday, October 21, 2013

  Actual Average Record
Temperature  
Mean Temperature 53 °F 58 °F  
Max Temperature 68 °F 69 °F 85 °F (1947)
Min Temperature 37 °F 47 °F 26 °F (1972)
Degree Days  
Heating Degree Days 12 8  
Month to date heating degree days 58 111  
Since 1 July heating degree days 74 142  
Cooling Degree Days 0 1  
Month to date cooling degree days 49 30  
Year to date cooling degree days 1380 1477  
Growing Degree Days 2 (Base 50)    
Moisture  
Dew Point 43 °F    
Average Humidity 67    
Maximum Humidity 92    
Minimum Humidity 42    
Precipitation  
Precipitation 0.00 in 0.11 in 0.95 in (1988)
Month to date precipitation 1.11 2.11  
Year to date precipitation 41.63 35.09  
Sea Level Pressure  
Sea Level Pressure 30.08 in    
Wind  
Wind Speed 4 mph (SSW)    
Max Wind Speed 13 mph    
Max Gust Speed 16 mph    
Visibility 10 miles    
Events      
T = Trace of Precipitation, MM = Missing Value Source: NWS Daily Summary

Daily Weather History Graph

Daily Weather History Graph

Search for Another Location

Airport or City:

Trip Planner

Search our weather history database for the weather conditions in past years. The results will help you decide how hot, cold, wet, or windy it might be!

Date:

Astronomy

Oct. 21, 2013 Rise Set
Actual Time 7:32 AM EDT 6:35 PM EDT
Civil Twilight 7:06 AM EDT 7:01 PM EDT
Nautical Twilight 6:36 AM EDT 7:31 PM EDT
Astronomical Twilight 6:06 AM EDT 8:01 PM EDT
Moon 8:31 PM EDT (10/21) 10:01 AM EDT (10/21)
Length of Visible Light 11h 55m
Length of Day
11h 03m
Waning Gibbous, 93% of the Moon is Illuminated
Oct 21
Waning Gibbous
Oct 26
Last Quarter
Nov 3
New
Nov 10
First Quarter
Nov 17
Full

Hourly Weather History & Observations

Time (EDT) Temp. Dew Point Humidity Pressure Visibility Wind Dir Wind Speed Gust Speed Precip Events Conditions
12:54 AM 44.1 °F 39.9 °F 85% 30.12 in 10.0 mi Calm Calm - N/A   Clear
1:54 AM 44.1 °F 39.0 °F 82% 30.11 in 10.0 mi Calm Calm - N/A   Clear
2:54 AM 44.1 °F 39.9 °F 85% 30.10 in 10.0 mi Calm Calm - N/A   Clear
3:54 AM 45.0 °F 39.9 °F 82% 30.09 in 10.0 mi Calm Calm - N/A   Clear
4:54 AM 43.0 °F 39.0 °F 86% 30.11 in 10.0 mi Calm Calm - N/A   Clear
5:54 AM 41.0 °F 37.9 °F 89% 30.12 in 10.0 mi Calm Calm - N/A   Clear
6:54 AM 39.9 °F 37.0 °F 89% 30.14 in 10.0 mi Calm Calm - N/A   Clear
7:54 AM 41.0 °F 37.9 °F 89% 30.14 in 10.0 mi Calm Calm - N/A   Partly Cloudy
8:54 AM 46.9 °F 41.0 °F 80% 30.16 in 10.0 mi Calm Calm - N/A   Scattered Clouds
9:54 AM 52.0 °F 42.1 °F 69% 30.16 in 10.0 mi Calm Calm - N/A   Scattered Clouds
10:54 AM 55.9 °F 43.0 °F 62% 30.15 in 10.0 mi SSW 5.8 mph - N/A   Mostly Cloudy
11:54 AM 61.0 °F 44.1 °F 54% 30.14 in 10.0 mi Variable 4.6 mph - N/A   Mostly Cloudy
12:54 PM 64.0 °F 45.0 °F 50% 30.12 in 10.0 mi Variable 6.9 mph - N/A   Scattered Clouds
1:54 PM 64.0 °F 45.0 °F 50% 30.08 in 10.0 mi Variable 5.8 mph - N/A   Scattered Clouds
2:54 PM 66.0 °F 45.0 °F 47% 30.06 in 10.0 mi SSW 4.6 mph - N/A   Scattered Clouds
3:54 PM 66.9 °F 43.0 °F 42% 30.03 in 10.0 mi WSW 9.2 mph - N/A   Partly Cloudy
4:54 PM 66.0 °F 44.1 °F 45% 30.03 in 10.0 mi SW 11.5 mph - N/A   Mostly Cloudy
5:54 PM 64.0 °F 45.0 °F 50% 30.01 in 10.0 mi SSW 9.2 mph - N/A   Mostly Cloudy
6:54 PM 61.0 °F 46.0 °F 58% 30.04 in 10.0 mi SW 4.6 mph - N/A   Mostly Cloudy
7:54 PM 60.1 °F 46.9 °F 62% 30.02 in 10.0 mi Calm Calm - N/A   Mostly Cloudy
8:54 PM 55.9 °F 48.0 °F 75% 30.03 in 10.0 mi SW 5.8 mph - N/A   Mostly Cloudy
9:54 PM 55.9 °F 48.0 °F 75% 30.03 in 10.0 mi SSW 4.6 mph - N/A   Mostly Cloudy
10:54 PM 55.9 °F 48.0 °F 75% 30.01 in 10.0 mi SSW 3.5 mph - N/A   Overcast
11:54 PM 55.0 °F 48.0 °F 77% 29.99 in 10.0 mi South 4.6 mph - N/A   Overcast